Home   Weather   Bowling Green   Past weeks

Flag for USA Past Weather in Bowling Green, Kentucky, USA — Yesterday and Last 2 Weeks

Now
65 °F

Partly sunny.


Feels Like: 65 °F
Forecast: 52 / 68 °F
Wind: 12 mph from West

Location: Glasgow Municipal Airport

Current Time: Apr 27, 2017 at 4:07:22 pm

Latest Report: Apr 27, 2017 at 3:30 pm


Visibility: 10 mi

Pressure: 29.81 "Hg

Humidity: 63%

Dew Point: 52 °F

Location of Bowling GreenLocation

Past Weather in Bowling Green — Graph

°F

Bowling Green Temperature Yesterday

Maximum temperature yesterday: 82 °F (at 3:50 pm)
Minimum temperature yesterday: 55 °F (at 2:50 am)
Average temperature yesterday: 70 °F

High & Low Weather Summary for the Past Weeks

 TemperatureHumidityPressure
High85 °F (Apr 14, 1:50 pm)100% (Apr 13, 4:10 am)30.34 "Hg (Apr 13, 4:10 am)
Low46 °F (Apr 13, 4:50 am)23% (Apr 14, 4:10 pm)29.58 "Hg (Apr 26, 7:50 pm)
Average65 °F72%30.02 "Hg
* Reported Apr 12 3:10 pm — Apr 27 3:10 pm, Bowling Green, Weather by CustomWeather, © 2017

Note: Actual official high and low records may vary slightly from our data, if they occured in-between our weather recording intervals... More about our weather records

Advertising

Bowling Green Weather History for the Previous 24 Hours

Scroll right to see more
 ConditionsComfort  
Time TempWeatherWind HumidityBarometerVisibility
3:10 pm
Thu, Apr 27
65 °FScattered clouds.13 mph63%29.81 "Hg10 mi
1:50 pm65 °FMostly cloudy.13 mph67%29.79 "Hg10 mi
1:10 pm65 °FMostly cloudy.21 mph68%29.78 "Hg10 mi
12:50 pm65 °FPartly sunny.15 mph69%29.77 "Hg10 mi
12:10 pm64 °FOvercast.13 mph72%29.76 "Hg10 mi
11:50 am65 °FPartly sunny.15 mph71%29.76 "Hg10 mi
11:30 am67 °FPartly sunny.14 mph69%29.74 "Hg10 mi
11:10 am66 °FPartly sunny.14 mph72%29.73 "Hg10 mi
10:50 am67 °FPartly sunny.18 mph70%29.73 "Hg10 mi
10:10 am63 °FBroken clouds.14 mph97%29.72 "Hg10 mi
9:50 am68 °FCloudy.13 mph76%29.70 "Hg10 mi
9:10 am65 °FMostly cloudy.12 mph90%29.69 "Hg10 mi
8:50 am64 °FMostly cloudy.15 mph90%29.69 "Hg10 mi
8:30 am64 °FMostly cloudy.13 mph100%29.68 "Hg10 mi
8:10 am64 °FOvercast.14 mph100%29.67 "Hg10 mi
7:50 am64 °FMore clouds than sun.12 mph100%29.67 "Hg10 mi
3:30 am61 °FRain. Overcast.No wind100%29.64 "Hg5 mi
3:10 am62 °FRain. Mostly cloudy.5 mph100%29.67 "Hg7 mi
2:50 am62 °FRain. Mostly cloudy.3 mph100%29.63 "Hg10 mi
2:30 am63 °FRain. Mostly cloudy.6 mph90%29.66 "Hg10 mi
2:10 am65 °FRain. Mostly cloudy.14 mph80%29.66 "Hg7 mi
1:50 am71 °FOvercast.18 mph60%29.63 "Hg10 mi
1:10 am71 °FMostly cloudy.10 mph62%29.63 "Hg10 mi
12:50 am71 °FPassing clouds.10 mph62%29.64 "Hg10 mi
12:30 am70 °FClear.10 mph64%29.63 "Hg10 mi
12:10 am69 °FClear.7 mph66%29.63 "Hg10 mi
11:50 pm
Wed, Apr 26
69 °FClear.7 mph66%29.63 "Hg10 mi
11:30 pm69 °FClear.7 mph67%29.61 "Hg10 mi
10:50 pm69 °FClear.3 mph64%29.60 "Hg10 mi
10:30 pm69 °FClear.5 mph64%29.60 "Hg10 mi
10:10 pm70 °FClear.3 mph62%29.61 "Hg10 mi
9:50 pm71 °FClear.5 mph61%29.61 "Hg10 mi
9:30 pm71 °FClear.5 mph59%29.60 "Hg10 mi
8:30 pm72 °FClear.5 mph58%29.59 "Hg10 mi
8:10 pm74 °FClear.3 mph55%29.59 "Hg10 mi
7:50 pm74 °FClear.3 mph54%29.58 "Hg10 mi
6:50 pm77 °FClear.3 mph48%29.59 "Hg10 mi
6:30 pm79 °FClear.5 mph45%29.59 "Hg10 mi
6:10 pm80 °FSunny.7 mph42%29.60 "Hg10 mi
5:50 pm80 °FSunny.10 mph41%29.60 "Hg10 mi
5:30 pm80 °FSunny.9 mph42%29.61 "Hg10 mi
5:10 pm81 °FSunny.12 mph40%29.61 "Hg10 mi
4:50 pm81 °FSunny.10 mph43%29.62 "Hg10 mi
4:10 pm82 °FSunny.14 mph35%29.63 "Hg10 mi
Weather by CustomWeather, © 2017

See weather overviewHow to use our weather pages